Skip Page Navigation
NASA JPL Caltech
NASA Logo - Jet Propulsion Laboratory + View the NASA Portal
+ Center for Near-Earth Object Studies
JPL Home Earth Solar System Stars & Galaxies Technology
JPL Solar System Dynamics
BODIES ORBITS EPHEMERIDES TOOLS PHYSICAL DATA DISCOVERY FAQ SITE MAP
JPL Small-Body Database Browser
Search: [ help ]  
362539 (2010 UV40)
Classification: Main-belt Asteroid          SPK-ID: 2362539
Ephemeris | Orbit Diagram | Orbital Elements | Mission Design | Physical Parameters | Discovery Circumstances | Close-Approach Data ]

[ show orbit diagram ]
Orbital Elements at Epoch 2459200.5 (2020-Dec-17.0) TDB
Reference: JPL 14 (heliocentric ecliptic J2000)
 Element Value Uncertainty (1-sigma)   Units 
e .0996332326258469 8.3994e-08  
a 2.979879321111178 4.1557e-08 au
q 2.682984311513957 2.5364e-07 au
i 2.099924512307392 1.15e-05 deg
node 2.971082572209994 0.00019665 deg
peri 333.6286369808776 0.00020858 deg
M 48.49241955237835 6.3043e-05 deg
tp 2458947.414190661820
(2020-Apr-07.91419066)
0.0003317 TDB
period 1878.86874284202
5.14
3.9303e-05
1.076e-07
d
yr
n .1916046564569783 4.0081e-09 deg/d
Q 3.276774330708398 4.5697e-08 au
  Orbit Determination Parameters
   # obs. used (total)      158  
   data-arc span      6891 days (18.87 yr)  
   first obs. used      2002-02-07  
   last obs. used      2020-12-20  
   planetary ephem.      DE441  
   SB-pert. ephem.      SB441-N16  
   condition code      0  
   norm. resid. RMS      .5673  
   source      ORB  
   producer      Otto Matic  
   solution date      2021-Apr-14 09:39:51  

Additional Information
 Earth MOID = 1.67179 au 
 Jupiter MOID = 2.06111 au 
 T_jup = 3.251 
[ show covariance matrix ]

Ephemeris | Orbit Diagram | Orbital Elements | Mission Design | Physical Parameters | Discovery Circumstances | Close-Approach Data ]

Physical Parameter Table
Parameter Symbol Value Units Sigma Reference Notes
absolute magnitude H 16.48   n/a E2021B25  

362539 (2010 UV40)          Discovered 2005-Oct-22 by Spacewatch at Kitt Peak
Reference: Last Updated: 2013-04-29

[ show close-approach data ]
Alternate Designations
 2010 UV40 = 2005 UO110 
Ephemeris | Orbit Diagram | Orbital Elements | Mission Design | Physical Parameters | Discovery Circumstances | Close-Approach Data ]
ABOUT SSD CREDITS/AWARDS PRIVACY/COPYRIGHT GLOSSARY LINKS
FirstGov 2021-Jun-20 20:24 UT
(server date/time)  
NASA Home Page
Site Manager:   Ryan S. Park
Webmaster  Alan B. Chamberlin